This is the latest recevied weather packets stored in our database for station/object KD4EG. If no packets are shown the sender has not sent any weather packets the latest 10 day(s).
| Time | Temp. | Humidity | Pressure | Rain* | Wind** | Luminosity | Snow |
|---|---|---|---|---|---|---|---|
| 1777984971 | 16.11° C | 65% | 1017.1 hPa | 0 mm | - | 261 W/m² | - |
| 1777984667 | 15.56° C | 66% | 1017.1 hPa | 0 mm | - | 245 W/m² | - |
| 1777984364 | 15.56° C | 66% | 1017.2 hPa | 0 mm | - | 238 W/m² | - |
| 1777984060 | 15.56° C | 66% | 1017.1 hPa | 0 mm | - | 220 W/m² | - |
| 1777983757 | 15° C | 67% | 1017.3 hPa | 0 mm | - | 217 W/m² | - |
| 1777983454 | 15° C | 67% | 1017.2 hPa | 0 mm | - | 206 W/m² | - |
| 1777983151 | 14.44° C | 68% | 1017.3 hPa | 0 mm | - | 122 W/m² | - |
| 1777982847 | 13.89° C | 69% | 1017.3 hPa | 0 mm | - | 47 W/m² | - |
| 1777982543 | 13.89° C | 70% | 1017.1 hPa | 0 mm | - | 46 W/m² | - |
| 1777982241 | 13.33° C | 71% | 1017.2 hPa | 0 mm | - | 44 W/m² | - |
| 1777981940 | 13.33° C | 71% | 1017.4 hPa | 0 mm | - | 42 W/m² | - |
| 1777981637 | 12.78° C | 73% | 1017.5 hPa | 0 mm | - | 41 W/m² | - |
| 1777981333 | 12.78° C | 75% | 1017.4 hPa | 0 mm | - | 39 W/m² | - |
| 1777981029 | 11.67° C | 79% | 1017.3 hPa | 0 mm | - | 37 W/m² | - |
| 1777980726 | 11.67° C | 81% | 1017.2 hPa | 0 mm | - | 35 W/m² | - |
| 1777980423 | 11.67° C | 81% | 1017.3 hPa | 0 mm | - | 29 W/m² | - |
| 1777980121 | 11.67° C | 80% | 1017.2 hPa | 0 mm | - | 25 W/m² | - |
| 1777979820 | 11.67° C | 80% | 1017.1 hPa | 0 mm | - | 20 W/m² | - |
| 1777979516 | 11.67° C | 79% | 1017 hPa | 0 mm | - | 18 W/m² | - |
| 1777979213 | 11.67° C | 79% | 1016.9 hPa | 0 mm | - | 18 W/m² | - |
| 1777978910 | 11.67° C | 79% | 1016.9 hPa | 0 mm | - | 18 W/m² | - |
| 1777978606 | 11.67° C | 79% | 1016.7 hPa | 0 mm | - | 19 W/m² | - |
| 1777978302 | 11.67° C | 79% | 1016.8 hPa | 0 mm | - | 17 W/m² | - |
| 1777977999 | 11.67° C | 79% | 1016.7 hPa | 0 mm | - | 15 W/m² | - |
| 1777977697 | 11.67° C | 79% | 1016.8 hPa | 0 mm | - | 12 W/m² | - |
* Rain latest hour (hover to see other rain measurements)
** Current wind speed in m/s (hover to see current wind gust speed)